Wind_Speed
17 19 21 24 26 27 30 33 36 40 42 48 53 57 61 64 62 44 37 37 23 10 7 6 9 6 7 6 3 2 3 3 7 11 11 14 14 16 16 22 28 35 36 33 30 27 28 22 17
18 19 20 22 24 28 31 31 32 39 42 48 54 57 60 67 68 61 41 36 28 12 8 5 5 5 5 3 3 1 3 8 10 11 11 14 18 19 18 25 31 37 35 33 29 25 25 22 18
23 23 23 23 25 28 30 31 34 38 42 48 54 56 60 65 66 65 47 36 32 15 7 4 4 6 3 5 2 2 7 12 12 12 7 12 20 22 24 29 32 38 33 33 29 26 28 22 18
24 26 26 26 26 28 32 33 36 39 43 48 53 57 63 66 69 62 47 35 33 17 10 7 7 6 5 5 4 6 12 15 11 8 4 13 19 25 29 32 33 34 34 31 30 30 26 22 16
26 27 28 29 29 30 31 33 39 39 42 46 53 57 63 64 68 59 49 34 31 23 13 10 8 5 9 6 6 11 13 12 9 4 9 17 20 27 31 34 37 32 34 30 30 32 27 21 17
26 28 30 33 34 35 35 34 39 41 43 47 54 59 64 64 65 58 45 35 37 30 19 12 10 7 11 8 12 13 10 8 7 11 19 17 21 26 31 32 38 36 33 30 27 29 24 20 18
29 31 33 36 38 39 38 37 39 42 46 49 55 61 64 63 62 58 45 33 35 38 21 14 9 12 12 11 21 18 15 11 9 17 20 23 22 12 29 33 39 35 33 31 27 27 22 19 16
34 35 36 36 38 38 38 39 39 43 48 52 58 60 62 62 61 53 38 37 34 34 22 14 8 15 14 11 20 35 30 15 14 21 25 23 14 15 26 30 39 35 32 28 24 26 21 18 13
37 38 37 36 35 37 38 40 42 46 51 55 57 61 60 59 58 50 37 39 32 30 23 13 7 16 15 14 23 34 41 35 17 22 26 19 18 22 27 27 30 34 27 25 24 23 21 18 14
40 41 38 37 36 37 40 41 43 47 49 53 54 59 57 58 53 48 43 35 34 27 20 13 7 16 15 18 25 30 36 37 25 21 27 20 21 28 22 25 24 27 30 27 24 21 18 16 14
41 42 38 37 36 36 38 40 42 45 49 53 51 56 56 55 54 43 38 34 35 30 21 12 9 17 16 17 20 17 16 17 23 13 20 19 24 24 23 24 26 27 26 24 20 15 11 9 12
43 44 40 38 36 38 38 40 41 44 47 51 52 54 54 53 57 38 34 33 28 33 22 14 8 19 17 17 21 16 20 16 17 11 6 14 19 23 23 21 21 20 20 19 18 13 11 12 11
40 45 42 39 38 38 38 41 44 46 46 46 51 52 54 53 61 41 31 26 29 29 20 13 3 19 20 18 19 15 11 10 11 16 11 13 12 18 18 19 21 21 20 17 16 12 9 9 10
41 41 43 42 42 40 40 42 44 44 46 46 50 53 54 53 57 43 28 28 26 25 18 16 4 19 20 19 14 8 9 11 14 14 12 12 5 12 13 18 19 20 14 17 15 13 11 10 7
42 41 37 40 41 42 43 45 46 46 47 49 52 54 52 57 51 39 26 23 23 24 17 17 7 13 17 18 16 7 5 2 2 3 7 7 8 9 11 19 20 20 17 19 16 16 16 9 9
42 41 40 41 40 41 44 44 44 44 47 50 52 53 49 56 45 33 21 16 19 21 22 22 16 4 15 14 14 11 7 4 5 3 6 5 8 9 11 21 22 24 22 20 19 19 17 10 10
43 43 44 41 40 40 45 48 47 47 47 50 53 50 51 48 41 27 18 13 18 26 30 33 31 17 1 13 12 13 10 10 7 11 5 9 7 7 11 17 22 27 24 23 25 21 15 11 11
44 43 47 45 41 40 43 49 50 50 49 50 52 46 50 45 41 21 15 13 23 27 30 29 36 32 21 9 10 16 18 17 18 17 13 9 10 8 10 12 17 23 24 24 26 15 13 15 12
44 44 49 50 43 43 44 49 54 52 52 53 51 44 51 39 42 13 10 10 23 22 26 23 30 33 31 17 11 8 21 21 23 25 23 18 16 15 14 16 20 25 22 23 24 18 13 15 15
45 46 49 53 47 44 47 50 53 53 53 52 47 39 45 30 31 6 3 12 23 29 30 28 29 28 21 21 18 12 9 17 26 29 29 28 24 21 19 19 19 26 23 25 28 22 18 22 21
48 49 53 54 52 48 48 53 55 55 54 45 41 35 40 20 15 5 7 22 32 29 22 26 23 16 11 25 21 20 22 21 19 20 33 35 33 27 24 24 22 21 28 28 26 19 17 18 23
53 53 56 55 54 51 52 56 55 53 47 44 42 41 43 19 11 11 14 21 26 23 18 8 16 21 21 23 28 29 24 31 24 25 25 38 41 37 29 23 23 22 32 29 29 26 20 25 27
61 59 59 61 59 55 56 53 53 46 46 43 40 44 43 27 18 21 26 21 24 12 10 4 5 19 17 24 25 31 23 37 37 34 30 30 45 42 39 32 26 25 26 37 35 31 32 24 28
66 66 65 64 62 61 58 54 50 49 49 42 40 41 39 34 27 26 19 22 23 16 14 14 5 16 24 25 23 27 34 38 40 29 27 29 33 45 42 39 34 31 31 31 36 35 31 30 30
71 70 68 66 63 57 57 54 54 50 42 37 39 38 37 31 34 32 26 17 15 11 16 6 5 16 13 18 23 28 25 26 28 24 24 24 25 33 48 45 42 39 35 34 36 37 35 35 35
72 69 66 64 59 61 58 54 54 46 40 40 41 38 36 28 36 35 29 25 23 21 19 24 14 14 11 20 29 27 17 19 23 22 21 21 21 25 29 43 49 47 42 39 39 39 38 38 38
69 67 65 64 62 59 55 50 44 45 41 40 43 39 34 30 28 36 39 31 31 21 30 20 13 15 16 18 21 19 22 21 21 21 26 24 20 18 25 30 43 49 48 44 40 39 40 40 42
71 70 68 63 57 54 50 45 42 40 35 37 40 41 36 30 29 48 47 41 38 31 23 20 17 20 9 16 20 23 29 32 28 28 20 24 25 18 18 25 32 37 41 47 47 45 43 41 39
69 68 67 63 56 50 46 44 44 40 39 40 39 40 35 32 33 38 35 41 37 27 28 19 17 17 11 19 16 24 33 26 22 21 24 23 25 27 23 19 24 32 35 40 45 48 47 43 42
64 62 60 52 49 46 46 46 47 41 42 43 40 39 35 38 36 30 25 30 30 33 30 22 19 21 14 16 10 15 31 28 27 24 22 25 24 24 23 23 21 26 33 38 40 43 43 42 45
Wind_Direction
355 357 356 2 3 359 3 7 6 9 12 14 13 12 10 9 9 4 358 360 357 331 312 281 279 293 314 329 96 161 229 265 290 289 269 244 223 209 197 186 183 184 178 175 180 177 178 184 179
347 345 355 356 360 356 356 356 2 7 7 10 10 7 9 8 7 6 4 4 5 359 354 327 303 323 353 100 149 320 311 302 304 300 269 236 220 207 191 182 182 178 180 178 176 177 180 185 180
346 344 348 350 351 355 351 352 356 1 4 6 9 7 6 8 7 4 8 11 10 15 19 9 352 8 51 107 93 5 326 317 315 304 266 213 203 193 177 176 177 180 180 185 178 184 184 172 173
343 344 343 343 344 349 349 347 351 357 2 6 6 8 5 10 7 4 4 13 14 20 30 34 19 34 104 91 70 7 340 329 318 312 212 185 184 179 175 173 170 173 180 181 179 185 174 166 166
339 341 346 342 345 348 348 350 349 352 356 3 4 6 5 7 7 6 5 8 20 19 34 35 29 71 117 87 49 7 346 335 343 75 138 147 155 164 170 171 166 170 168 169 172 179 172 166 172
343 344 345 344 349 350 352 350 350 351 354 359 1 3 4 6 4 7 17 20 21 24 29 37 41 91 110 77 41 24 18 13 58 111 131 120 131 155 169 170 169 166 171 171 176 174 179 173 169
340 344 342 342 346 351 351 350 348 347 351 355 358 2 3 3 1 8 17 28 27 23 29 30 50 110 101 78 64 64 57 58 89 124 122 119 105 133 168 167 168 162 167 171 178 177 172 167 172
338 340 340 340 341 347 348 349 349 348 352 354 357 360 2 2 2 5 12 12 12 20 31 33 69 120 107 83 72 65 61 67 98 123 124 120 121 141 155 165 165 166 167 174 171 171 176 168 180
331 332 334 334 337 341 345 349 351 349 354 355 356 0 2 359 0 5 14 8 20 23 27 35 91 124 117 93 89 69 59 54 98 127 132 128 144 143 142 151 169 178 175 165 170 172 178 183 188
327 328 330 330 332 335 341 349 350 352 356 355 357 359 359 358 1 360 359 12 15 27 24 40 109 133 124 112 104 74 64 52 57 131 132 134 136 145 142 151 156 164 165 155 161 167 180 188 211
322 324 325 327 329 331 338 347 349 350 354 352 356 357 358 359 357 356 359 9 17 21 33 30 132 145 137 135 115 80 74 68 49 82 138 137 143 148 151 155 159 159 170 180 179 178 184 202 205
315 318 323 325 329 328 333 340 342 346 351 352 352 356 356 355 355 355 360 4 11 9 28 15 142 154 151 146 113 106 95 76 103 77 104 152 155 164 166 167 166 172 176 176 179 191 196 197 204
314 316 319 320 323 324 328 332 335 340 347 353 350 354 355 353 355 353 353 19 17 14 30 28 124 164 162 158 121 125 102 133 132 114 120 154 156 176 174 176 170 171 167 169 183 155 154 144 165
310 313 316 316 320 321 323 328 332 338 344 349 350 350 353 351 353 353 354 12 16 23 39 33 38 174 173 171 146 153 110 116 125 121 132 146 169 158 175 182 178 167 178 173 156 154 148 136 138
306 309 310 311 314 318 321 322 327 334 340 345 345 347 350 351 352 356 359 16 30 16 55 53 37 178 183 178 171 180 145 251 126 106 182 202 187 161 195 194 194 191 189 175 174 165 152 141 123
301 303 305 307 312 315 317 322 326 331 336 340 343 346 348 351 351 358 6 29 28 35 59 61 57 83 194 196 183 204 175 186 154 148 248 184 190 180 196 202 190 189 196 190 189 170 163 167 156
295 297 300 304 309 313 317 319 324 328 335 338 342 343 347 355 348 357 8 41 44 68 68 65 59 51 181 222 222 220 231 242 212 230 280 225 199 174 183 198 197 200 207 196 180 175 174 183 166
294 296 298 301 304 308 315 316 320 325 332 336 339 342 345 350 346 3 25 42 80 86 90 81 64 46 54 26 275 257 248 255 256 245 250 263 213 221 223 209 204 211 196 195 189 189 201 190 187
286 292 294 297 301 308 313 317 319 323 329 332 337 338 343 351 343 9 33 75 109 104 109 92 54 34 32 26 29 292 264 257 258 262 264 254 248 250 242 220 205 204 207 214 204 211 219 203 206
284 285 287 292 300 304 307 312 315 318 325 328 334 332 341 347 343 9 113 128 120 99 77 40 28 14 353 342 353 13 328 304 270 254 259 271 258 243 239 224 221 210 215 207 208 219 238 232 221
280 284 286 289 295 297 305 308 310 317 321 326 326 322 339 340 335 119 183 136 116 115 87 19 351 328 320 333 325 330 317 323 306 260 253 259 262 247 237 229 232 228 212 207 213 221 236 240 244
281 282 285 290 291 297 303 303 308 314 319 316 314 316 335 325 210 133 181 168 159 150 137 194 286 285 278 296 299 294 313 319 321 308 285 242 249 251 246 237 233 233 220 217 219 226 242 244 241
279 283 287 289 294 299 299 302 304 309 309 307 299 311 328 332 206 170 160 157 181 168 154 44 210 245 266 287 294 278 287 310 322 309 293 257 237 246 252 242 233 234 235 224 227 233 237 247 241
278 281 284 289 295 297 297 301 295 303 309 303 299 297 311 320 211 187 174 175 183 215 222 134 267 286 292 295 299 273 279 308 314 304 284 273 254 241 243 245 243 246 243 241 236 240 246 252 252
276 281 286 288 290 291 296 296 293 302 300 298 288 290 294 305 204 199 190 173 178 144 134 180 245 288 293 295 297 291 302 316 316 297 279 277 270 251 241 245 249 246 245 248 248 248 250 253 255
279 282 283 285 286 289 290 290 295 295 295 297 284 281 283 288 215 223 204 184 186 190 246 213 203 252 260 276 283 296 308 333 334 309 281 280 283 268 255 244 243 248 249 250 253 252 255 253 253
277 277 277 280 284 286 286 288 286 286 294 294 281 279 279 277 225 211 200 210 198 213 222 207 230 227 250 282 293 310 325 336 345 324 286 286 294 283 264 254 242 245 247 249 247 248 251 250 252
272 274 278 281 283 282 281 278 273 279 284 273 273 274 272 269 237 210 212 219 221 225 214 229 228 241 249 282 324 320 325 316 325 326 309 286 283 290 279 263 258 253 252 249 248 251 252 256 257
271 273 276 278 277 277 272 269 272 273 272 264 262 265 262 258 236 230 230 228 235 238 213 230 231 211 236 281 325 322 313 318 329 326 315 292 284 282 283 276 267 253 251 250 251 251 252 254 257
268 269 273 270 271 270 264 262 269 265 263 261 260 260 255 249 238 233 243 237 231 232 215 226 213 216 235 291 325 318 344 335 318 312 320 288 274 273 272 269 272 256 247 247 247 248 251 252 256
Height
11030 11028 11026 11023 11020 11017 11015 11011 11006 11002 10996 10988 10982 10976 10969 10960 10953 10947 10936 10927 10919 10913 10910 10911 10910 10911 10910 10910 10911 10914 10916 10917 10918 10918 10918 10918 10920 10923 10925 10929 10934 10938 10944 10951 10955 10960 10964 10966 10968
11030 11028 11026 11024 11021 11017 11015 11011 11007 11002 10996 10989 10982 10975 10967 10958 10948 10942 10932 10924 10917 10912 10911 10911 10909 10909 10909 10909 10911 10913 10915 10915 10914 10913 10913 10913 10916 10919 10922 10927 10932 10937 10943 10949 10955 10960 10963 10966 10969
11030 11027 11026 11023 11020 11018 11015 11011 11006 11002 10996 10989 10981 10974 10965 10956 10944 10935 10929 10923 10917 10914 10912 10911 10909 10908 10908 10910 10912 10913 10914 10913 10910 10908 10907 10908 10911 10915 10920 10924 10930 10937 10943 10948 10954 10959 10963 10967 10970
11029 11027 11024 11021 11021 11018 11014 11009 11004 11000 10994 10988 10981 10973 10964 10953 10943 10934 10926 10922 10917 10914 10913 10912 10910 10908 10908 10911 10912 10912 10912 10911 10908 10905 10903 10904 10907 10912 10918 10923 10930 10936 10942 10949 10954 10958 10962 10967 10970
11028 11025 11022 11020 11018 11016 11012 11007 11002 10997 10993 10988 10980 10972 10962 10951 10942 10935 10926 10921 10917 10913 10911 10910 10910 10909 10911 10913 10912 10912 10909 10907 10904 10902 10903 10904 10906 10912 10918 10923 10929 10937 10943 10949 10953 10957 10962 10966 10970
11027 11023 11021 11017 11015 11012 11009 11005 11000 10995 10992 10986 10978 10970 10959 10949 10942 10935 10926 10923 10917 10913 10910 10909 10909 10909 10911 10914 10914 10912 10908 10906 10903 10903 10906 10908 10911 10914 10919 10924 10929 10936 10942 10949 10953 10957 10962 10966 10969
11024 11021 11018 11015 11012 11009 11006 11003 10999 10994 10989 10983 10975 10965 10958 10949 10942 10933 10929 10926 10918 10912 10910 10909 10908 10910 10913 10916 10917 10913 10910 10907 10905 10905 10909 10912 10915 10918 10921 10925 10932 10938 10944 10949 10953 10958 10963 10966 10968
11020 11019 11016 11013 11010 11008 11005 11002 10997 10991 10986 10980 10971 10965 10957 10948 10941 10932 10927 10924 10918 10912 10910 10909 10909 10910 10913 10916 10918 10915 10912 10908 10907 10910 10911 10915 10920 10921 10923 10928 10934 10940 10944 10950 10954 10959 10963 10967 10969
11017 11016 11015 11013 11010 11006 11003 11000 10995 10989 10983 10977 10970 10963 10957 10950 10940 10930 10926 10922 10917 10911 10908 10908 10909 10911 10914 10917 10918 10916 10913 10913 10911 10913 10915 10918 10922 10925 10928 10932 10937 10942 10947 10951 10955 10960 10962 10965 10968
11014 11011 11011 11010 11008 11004 11000 10997 10992 10987 10983 10976 10969 10963 10956 10949 10938 10931 10925 10921 10919 10913 10909 10908 10911 10913 10915 10917 10917 10917 10916 10918 10918 10919 10920 10922 10925 10929 10933 10937 10940 10944 10949 10952 10956 10959 10962 10964 10966
11012 11011 11008 11006 11004 11000 10997 10994 10990 10987 10982 10976 10969 10963 10955 10948 10938 10930 10923 10921 10918 10914 10910 10909 10910 10914 10915 10915 10916 10918 10919 10921 10924 10925 10925 10927 10929 10932 10936 10939 10943 10945 10950 10954 10956 10959 10962 10964 10964
11008 11007 11006 11002 10999 10995 10993 10991 10990 10986 10983 10975 10968 10963 10955 10946 10939 10930 10926 10922 10918 10915 10911 10911 10911 10913 10915 10915 10917 10918 10919 10922 10923 10928 10928 10931 10933 10936 10939 10942 10946 10950 10952 10956 10959 10961 10962 10963 10964
11007 11000 11001 10999 10996 10994 10991 10989 10986 10984 10980 10974 10969 10963 10953 10946 10940 10932 10927 10922 10918 10914 10910 10910 10912 10914 10916 10918 10920 10920 10921 10922 10925 10927 10929 10932 10935 10937 10941 10944 10946 10950 10953 10956 10959 10961 10961 10961 10962
11006 11003 10996 10994 10991 10988 10989 10987 10983 10981 10978 10973 10967 10961 10953 10946 10941 10932 10927 10923 10919 10915 10910 10911 10912 10915 10916 10920 10922 10923 10924 10926 10927 10928 10931 10933 10936 10939 10943 10946 10949 10952 10954 10956 10958 10961 10962 10962 10962
11001 11000 10999 10992 10989 10985 10983 10981 10978 10976 10974 10969 10964 10957 10951 10945 10939 10933 10927 10922 10916 10913 10909 10909 10912 10915 10917 10920 10924 10927 10927 10929 10931 10931 10932 10933 10936 10939 10943 10946 10949 10951 10954 10956 10956 10958 10960 10961 10961
10995 10994 10992 10990 10985 10982 10979 10978 10976 10972 10970 10966 10961 10954 10949 10946 10941 10932 10925 10920 10915 10915 10915 10912 10913 10917 10919 10921 10923 10926 10926 10928 10930 10931 10934 10934 10936 10939 10942 10945 10949 10951 10953 10954 10955 10956 10958 10960 10961
10987 10987 10985 10985 10983 10978 10973 10969 10968 10967 10966 10963 10959 10950 10946 10946 10939 10930 10925 10919 10918 10919 10921 10920 10919 10923 10926 10925 10925 10925 10926 10926 10928 10930 10935 10935 10936 10938 10940 10943 10945 10948 10950 10951 10953 10954 10956 10959 10960
10979 10979 10977 10978 10978 10975 10972 10965 10962 10961 10961 10958 10956 10949 10944 10941 10934 10929 10925 10919 10922 10920 10920 10919 10922 10925 10925 10927 10928 10927 10925 10926 10927 10928 10932 10935 10936 10937 10938 10940 10942 10945 10947 10949 10951 10952 10955 10957 10958
10971 10971 10967 10968 10972 10969 10967 10960 10954 10953 10954 10951 10951 10946 10942 10941 10933 10930 10926 10921 10918 10917 10916 10919 10919 10922 10923 10926 10924 10924 10923 10924 10924 10924 10927 10932 10935 10936 10937 10938 10939 10941 10943 10946 10948 10950 10952 10955 10955
10965 10965 10962 10959 10964 10966 10960 10957 10950 10950 10948 10945 10945 10943 10943 10942 10936 10931 10925 10918 10913 10920 10924 10928 10924 10920 10924 10921 10922 10922 10922 10923 10922 10922 10921 10924 10929 10932 10934 10935 10937 10938 10939 10941 10944 10946 10948 10951 10953
10955 10956 10953 10954 10956 10959 10957 10950 10947 10943 10940 10940 10939 10938 10940 10938 10935 10930 10926 10917 10915 10913 10917 10925 10928 10928 10926 10920 10917 10918 10916 10915 10915 10915 10917 10917 10920 10925 10928 10931 10933 10934 10934 10938 10940 10943 10945 10947 10949
10946 10946 10944 10945 10946 10950 10948 10942 10943 10942 10934 10923 10926 10929 10934 10933 10930 10924 10919 10913 10908 10904 10908 10905 10912 10921 10918 10915 10912 10910 10911 10908 10908 10908 10909 10906 10909 10914 10920 10924 10928 10929 10930 10934 10937 10939 10941 10942 10943
10932 10935 10937 10935 10935 10939 10937 10938 10931 10937 10931 10925 10916 10914 10923 10927 10925 10918 10910 10908 10905 10907 10908 10901 10903 10914 10913 10909 10904 10903 10905 10904 10900 10900 10899 10900 10902 10906 10911 10916 10919 10923 10926 10928 10931 10933 10935 10937 10938
10921 10923 10925 10927 10926 10924 10924 10929 10915 10926 10924 10918 10913 10909 10913 10917 10917 10909 10905 10902 10904 10908 10910 10911 10916 10913 10906 10901 10899 10899 10900 10898 10893 10894 10892 10892 10893 10898 10903 10907 10912 10915 10918 10921 10924 10927 10928 10930 10931
10907 10910 10914 10915 10916 10912 10910 10913 10908 10914 10915 10913 10903 10902 10902 10904 10907 10902 10901 10901 10903 10904 10912 10915 10913 10905 10900 10901 10898 10897 10895 10890 10888 10888 10888 10888 10887 10889 10893 10898 10903 10908 10910 10912 10915 10918 10920 10922 10924
10896 10897 10899 10899 10901 10901 10897 10898 10898 10899 10900 10901 10892 10890 10890 10893 10893 10895 10897 10890 10891 10889 10891 10892 10893 10899 10896 10897 10896 10890 10888 10886 10884 10884 10884 10883 10883 10882 10885 10889 10894 10897 10900 10903 10906 10908 10911 10913 10916
10880 10880 10881 10886 10887 10885 10884 10884 10885 10884 10889 10885 10876 10876 10878 10879 10885 10889 10884 10884 10884 10880 10882 10888 10885 10891 10889 10891 10887 10885 10881 10880 10880 10878 10878 10877 10877 10876 10877 10880 10883 10887 10891 10893 10895 10898 10901 10903 10905
10863 10863 10867 10872 10873 10871 10871 10871 10871 10872 10876 10873 10867 10863 10864 10868 10871 10874 10875 10876 10878 10879 10879 10880 10881 10884 10885 10886 10882 10882 10880 10877 10875 10874 10871 10871 10871 10871 10870 10871 10873 10877 10879 10883 10885 10887 10890 10892 10894
10848 10850 10854 10856 10857 10858 10857 10856 10859 10862 10862 10860 10857 10851 10851 10855 10858 10861 10865 10867 10870 10876 10878 10877 10875 10879 10882 10882 10876 10877 10878 10873 10870 10867 10864 10864 10864 10863 10864 10863 10865 10867 10870 10872 10874 10877 10880 10882 10883
10833 10835 10838 10840 10843 10844 10844 10842 10844 10850 10848 10847 10847 10843 10844 10844 10845 10852 10858 10858 10867 10870 10873 10876 10873 10875 10876 10875 10873 10874 10877 10868 10864 10861 10860 10858 10855 10854 10855 10858 10858 10859 10861 10864 10864 10866 10869 10871 10873